Regional Weather Roundup
Issued by NWS Binghamton, NY

Home | Current Version | Previous Version | Text Only | Print | Product List | Glossary On
Versions: 1 2 3 4 5 6 7 8 9 10 11 12 13 14 15 16 17 18 19 20 21 22 23 24 25 26 27 28 29 30 31 32 33 34 35 36 37 38 39 40 41 42 43 44 45 46 47 48 49 50
000
ASUS41 KBGM 271710
RWRBGM
RWRBGM
BINGHAMTON REGIONAL WEATHER ROUNDUP
NATIONAL WEATHER SERVICE BINGHAMTON NY
100 PM EDT MON APR 27 2015

Note: "fair" indicates few or no clouds below 12,000 feet with no
significant weather and/or obstructions to visibility.

* = Station(s) that does not report precipitation, such as rain,
snow, etc, also no thunder or fog.

!NYZ009-015>018-022>025-036-037-044>046-055>057-062-271800
...CENTRAL NEW YORK...

CITY           SKY/WX    TMP DP  RH WIND       PRES   REMARKS
BINGHAMTON     CLOUDY    46  35  65 NW14G21   29.75R
CORTLAND       CLOUDY    45  36  70 NW9G17    29.79S
DANSVILLE      LGT RAIN  47  39  74 NW9       29.85R
ELMIRA         CLOUDY    48  38  68 NE9       29.79S
ITHACA         CLOUDY    45  37  73 NW14      29.81S
MONTICELLO     CLOUDY    48  32  53 NW14      29.71S
PENN YAN       CLOUDY    46  37  71 NW9       29.82S
ROME           CLOUDY    51  37  58 SW15G22   29.76R
SYRACUSE       PTSUNNY   49  34  56 NW13      29.80S
$$

!PAZ038>040-043-044-047-048-072-271800
...NORTHEAST PENNSYLVANIA...

CITY           SKY/WX    TMP DP  RH WIND       PRES   REMARKS
HAZLETON       CLOUDY    48  32  53 NW8       29.76S
SCRANTON       CLOUDY    50  34  54 N12G18    29.74S
TOWANDA*       PTSUNNY   50  34  53 N10G16    29.79S
$$
&&
KEY
WCI = WIND CHILL INDEX
VSB = VISIBILITY
HX  = HEAT INDEX
$$


USA.gov is the U.S. government's official web portal to all federal, state and local government web resources and services.